[TLELIST] Archives

 

[list_settings.list_name] Current TLEs

August 16th 2011 PDT

HST 1 20580U 90037B 11225.81642362 .00000777 00000-0 46075-4 0 8173 2 20580 028.4715 359.9730 0003376 017.7874 342.2800 15.01454160968327 ISS (ZARYA) 1 25544U 98067A 11228.43685686 .00004918 00000-0 64863-4 0 9049 2 25544 051.6389 217.4993 0013076 083.2729 077.5423 15.60386248730312 CXO 1 25867U 99040B 11229.83333333 -.00000646 00000-0 00000+0 0 6313 2 25867 069.8497 027.4108 8657181 277.0021 002.0592 00.37805671 8003 ____________________________________________________________________ These 2-Line ...Continue Reading

[list_settings.list_name] Current TLEs

August 15th 2011 PDT

HST 1 20580U 90037B 11225.81642362 .00000777 00000-0 46075-4 0 8173 2 20580 028.4715 359.9730 0003376 017.7874 342.2800 15.01454160968327 ISS (ZARYA) 1 25544U 98067A 11227.40977613 .00004643 00000-0 61627-4 0 8969 2 25544 051.6388 222.6671 0013005 079.9237 067.5487 15.60373719730150 CXO 1 25867U 99040B 11227.16666667 -.00000637 00000-0 00000+0 0 6305 2 25867 069.8271 027.6043 8657463 276.9789 359.0763 00.37805000 7993 ____________________________________________________________________ These 2-Line ...Continue Reading

[list_settings.list_name] Current TLEs

August 14th 2011 PDT

HST 1 20580U 90037B 11225.81642362 .00000777 00000-0 46075-4 0 8173 2 20580 028.4715 359.9730 0003376 017.7874 342.2800 15.01454160968327 ISS (ZARYA) 1 25544U 98067A 11226.38636426 .00004952 00000-0 65327-4 0 8907 2 25544 051.6401 227.8183 0012921 076.4533 078.3509 15.60364538729992 CXO 1 25867U 99040B 11227.16666667 -.00000637 00000-0 00000+0 0 6305 2 25867 069.8271 027.6043 8657463 276.9789 359.0763 00.37805000 7993 ____________________________________________________________________ These 2-Line ...Continue Reading

[list_settings.list_name] Current TLEs

August 13th 2011 PDT

HST 1 20580U 90037B 11224.81935221 .00000843 00000-0 51006-4 0 8164 2 20580 028.4713 006.4859 0003348 006.8350 353.2256 15.01453382968173 ISS (ZARYA) 1 25544U 98067A 11225.36943287 .00005555 00000-0 72534-4 0 8830 2 25544 051.6396 232.9343 0012887 072.8369 125.7644 15.60355603729831 CXO 1 25867U 99040B 11227.16666667 -.00000637 00000-0 00000+0 0 6305 2 25867 069.8271 027.6043 8657463 276.9789 359.0763 00.37805000 7993 ____________________________________________________________________ These 2-Line ...Continue Reading

[list_settings.list_name] Current TLEs

August 12th 2011 PDT

HST 1 20580U 90037B 11223.22403858 .00000892 00000-0 54723-4 0 8156 2 20580 028.4708 016.9065 0003409 350.4558 009.6032 15.01451603967939 ISS (ZARYA) 1 25544U 98067A 11224.39017432 .00006249 00000-0 80814-4 0 8770 2 25544 051.6403 237.8615 0012855 070.1066 024.0877 15.60346277729685 CXO 1 25867U 99040B 11213.95833333 -.00000639 00000-0 00000+0 0 6293 2 25867 069.7252 028.4195 8642897 276.9147 001.2242 00.37800570 7941 ____________________________________________________________________ These 2-Line ...Continue Reading

[list_settings.list_name] Current TLEs

August 11th 2011 PDT

HST 1 20580U 90037B 11223.22403858 .00000892 00000-0 54723-4 0 8156 2 20580 028.4708 016.9065 0003409 350.4558 009.6032 15.01451603967939 ISS (ZARYA) 1 25544U 98067A 11223.37173066 .00006961 00000-0 89329-4 0 8729 2 25544 051.6405 242.9854 0012838 065.6986 063.8635 15.60335363729520 CXO 1 25867U 99040B 11213.95833333 -.00000639 00000-0 00000+0 0 6293 2 25867 069.7252 028.4195 8642897 276.9147 001.2242 00.37800570 7941 ____________________________________________________________________ These 2-Line ...Continue Reading

[list_settings.list_name] Current TLEs

August 10th 2011 PDT

HST 1 20580U 90037B 11221.03047376 .00000821 00000-0 49400-4 0 8149 2 20580 028.4709 031.2361 0003329 325.0165 035.0079 15.01448009967606 ISS (ZARYA) 1 25544U 98067A 11222.07496944 .00008556 00000-0 10839-3 0 8639 2 25544 051.6397 249.5128 0012663 060.4474 340.1361 15.60320724729328 CXO 1 25867U 99040B 11213.95833333 -.00000639 00000-0 00000+0 0 6293 2 25867 069.7252 028.4195 8642897 276.9147 001.2242 00.37800570 7941 ____________________________________________________________________ These 2-Line ...Continue Reading

[list_settings.list_name] Current TLEs

August 9th 2011 PDT

HST 1 20580U 90037B 11221.03047376 .00000821 00000-0 49400-4 0 8149 2 20580 028.4709 031.2361 0003329 325.0165 035.0079 15.01448009967606 ISS (ZARYA) 1 25544U 98067A 11221.38541690 .00007249 00000-0 92864-4 0 8593 2 25544 051.6407 252.9820 0012685 058.6235 066.0695 15.60305935729214 CXO 1 25867U 99040B 11213.95833333 -.00000639 00000-0 00000+0 0 6293 2 25867 069.7252 028.4195 8642897 276.9147 001.2242 00.37800570 7941 ____________________________________________________________________ These 2-Line ...Continue Reading

[list_settings.list_name] Current TLEs

August 8th 2011 PDT

HST 1 20580U 90037B 11219.90045777 .00001240 00000-0 81079-4 0 8138 2 20580 028.4710 038.6164 0003212 307.5869 052.4488 15.01447663967430 ISS (ZARYA) 1 25544U 98067A 11220.37158565 .00004586 00000-0 61164-4 0 8541 2 25544 051.6393 258.0860 0012828 054.3148 131.8091 15.60282006729050 CXO 1 25867U 99040B 11213.95833333 -.00000639 00000-0 00000+0 0 6293 2 25867 069.7252 028.4195 8642897 276.9147 001.2242 00.37800570 7941 ____________________________________________________________________ These 2-Line ...Continue Reading

[list_settings.list_name] Current TLEs

August 7th 2011 PDT

HST 1 20580U 90037B 11217.97277732 .00000877 00000-0 53624-4 0 8120 2 20580 028.4706 051.2125 0003281 285.7724 074.2496 15.01443841967149 ISS (ZARYA) 1 25544U 98067A 11219.40947917 -.00004516 00000-0 -47654-4 0 8486 2 25544 051.6417 262.9217 0012576 049.2894 129.0675 15.60278182728908 CXO 1 25867U 99040B 11213.95833333 -.00000639 00000-0 00000+0 0 6293 2 25867 069.7252 028.4195 8642897 276.9147 001.2242 00.37800570 7941 ____________________________________________________________________ These 2-Line ...Continue Reading
  • This mailing list is a public mailing list - anyone may join or leave, at any time.
  • This mailing list is announce-only.

International Space Station (ISS) / Hubble Space Telescope (HST) / Chandra X-Ray Observatory Orbital Data via EMAIL

Privacy Policy:

Private list